This is the latest recevied weather packets stored in our database for station/object AD0YN. If no packets are shown the sender has not sent any weather packets the latest 10 day(s).
| Time | Temp. | Humidity | Pressure | Rain* | Wind** | Luminosity | Snow |
|---|---|---|---|---|---|---|---|
| 1778159594 | 10.56° C | 64% | 1015.9 hPa | 0 mm | - | 242 W/m² | - |
| 1778159291 | 10.56° C | 65% | 1015.7 hPa | 0 mm | - | 230 W/m² | - |
| 1778158988 | 10° C | 65% | 1015.9 hPa | 0 mm | - | 214 W/m² | - |
| 1778158687 | 10° C | 65% | 1016 hPa | 0 mm | - | 200 W/m² | - |
| 1778158384 | 9.44° C | 65% | 1015.9 hPa | 0 mm | - | 186 W/m² | - |
| 1778158081 | 9.44° C | 66% | 1016 hPa | 0 mm | - | 173 W/m² | - |
| 1778157777 | 8.89° C | 65% | 1015.9 hPa | 0 mm | - | 159 W/m² | - |
| 1778157476 | 8.89° C | 66% | 1015.9 hPa | 0 mm | - | 146 W/m² | - |
| 1778157173 | 8.33° C | 67% | 1016 hPa | 0 mm | - | 132 W/m² | - |
| 1778156868 | 8.33° C | 67% | 1015.8 hPa | 0 mm | - | 120 W/m² | - |
| 1778156564 | 7.78° C | 68% | 1015.7 hPa | 0 mm | - | 109 W/m² | - |
| 1778156260 | 7.78° C | 68% | 1015.7 hPa | 0 mm | - | 97 W/m² | - |
| 1778155956 | 7.78° C | 69% | 1015.8 hPa | 0 mm | - | 87 W/m² | - |
| 1778155652 | 7.22° C | 69% | 1015.7 hPa | 0 mm | - | 77 W/m² | - |
| 1778155350 | 7.22° C | 70% | 1015.5 hPa | 0 mm | - | 68 W/m² | - |
| 1778155046 | 6.67° C | 71% | 1015.5 hPa | 0 mm | - | 55 W/m² | - |
| 1778154742 | 6.67° C | 72% | 1015.6 hPa | 0 mm | - | 36 W/m² | - |
| 1778154437 | 6.67° C | 72% | 1015.4 hPa | 0 mm | - | 33 W/m² | - |
| 1778154135 | 6.67° C | 72% | 1015.5 hPa | 0 mm | - | 29 W/m² | - |
| 1778153832 | 6.67° C | 72% | 1015.5 hPa | 0 mm | - | 25 W/m² | - |
| 1778153529 | 6.67° C | 72% | 1015.4 hPa | 0 mm | - | 21 W/m² | - |
| 1778153227 | 6.11° C | 72% | 1015.4 hPa | 0 mm | - | 17 W/m² | - |
| 1778152923 | 6.11° C | 73% | 1015.4 hPa | 0 mm | - | 13 W/m² | - |
| 1778152621 | 6.11° C | 72% | 1015.4 hPa | 0 mm | - | 9 W/m² | - |
| 1778152317 | 6.11° C | 72% | 1015.4 hPa | 0 mm | - | 6 W/m² | - |
* Rain latest hour (hover to see other rain measurements)
** Current wind speed in m/s (hover to see current wind gust speed)